| time (UTC) | temp C | wind direction | speed KPH | gust KPH | rain 1hr cm | rain 24hr cm | rain mn cm | humidity % | barometer mb |
| 20260507050101 | 8 | 330 | 1.6 | 8.0 | 0.00 | 0.79 | 0.00 | 95 | 1005.0 |
| 20260507044556 | 8 | 321 | 1.6 | 4.8 | 0.00 | 0.79 | 0.00 | 95 | 1004.9 |
| 20260507043055 | 8 | 328 | 1.6 | 4.8 | 0.00 | 0.79 | 0.00 | 95 | 1005.1 |
| 20260507041551 | 8 | 345 | 1.6 | 6.4 | 0.00 | 0.79 | 0.00 | 95 | 1005.2 |
| 20260507040047 | 8 | 323 | 3.2 | 6.4 | 0.13 | 0.79 | 0.00 | 95 | 1005.2 |
| 20260507034545 | 9 | 323 | 0.0 | 3.2 | 0.18 | 0.79 | 0.79 | 95 | 1004.9 |
| 20260507033045 | 9 | 276 | 0.0 | 4.8 | 0.20 | 0.79 | 0.79 | 95 | 1005.0 |
| 20260507031541 | 10 | 320 | 1.6 | 9.7 | 0.23 | 0.79 | 0.79 | 95 | 1005.0 |
| 20260507030041 | 10 | 316 | 3.2 | 11.3 | 0.10 | 0.66 | 0.66 | 94 | 1005.1 |
| 20260507024536 | 11 | 349 | 3.2 | 11.3 | 0.08 | 0.61 | 0.61 | 95 | 1004.7 |
| 20260507023030 | 11 | 326 | 3.2 | 8.0 | 0.23 | 0.58 | 0.58 | 95 | 1004.6 |
| 20260507021528 | 12 | 324 | 1.6 | 9.7 | 0.23 | 0.56 | 0.56 | 95 | 1004.3 |
| 20260507020031 | 12 | 314 | 1.6 | 9.7 | 0.23 | 0.56 | 0.56 | 95 | 1003.9 |
| 20260507014519 | 13 | 321 | 0.0 | 6.4 | 0.20 | 0.53 | 0.53 | 96 | 1004.0 |
| 20260507013033 | 14 | 236 | 0.0 | 1.6 | 0.03 | 0.36 | 0.36 | 96 | 1003.6 |
| 20260507011516 | 14 | 240 | 0.0 | 3.2 | 0.00 | 0.33 | 0.33 | 96 | 1003.4 |
| 20260507010015 | 14 | 236 | 0.0 | 3.2 | 0.00 | 0.33 | 0.33 | 96 | 1003.5 |
| 20260507004514 | 14 | 229 | 0.0 | 3.2 | 0.00 | 0.33 | 0.33 | 96 | 1003.4 |
| 20260507003014 | 14 | 203 | 0.0 | 3.2 | 0.00 | 0.33 | 0.33 | 96 | 1003.3 |
| 20260507001513 | 14 | 219 | 0.0 | 3.2 | 0.00 | 0.33 | 0.33 | 96 | 1003.3 |
| 20260507000015 | 14 | 169 | 0.0 | 4.8 | 0.00 | 0.33 | 0.33 | 96 | 1003.2 |
| 20260506234520 | 14 | 204 | 0.0 | 4.8 | 0.00 | 0.33 | 0.33 | 96 | 1003.0 |
| 20260506233013 | 14 | 233 | 0.0 | 3.2 | 0.00 | 0.33 | 0.33 | 96 | 1003.0 |
| 20260506231510 | 14 | 238 | 0.0 | 4.8 | 0.00 | 0.33 | 0.33 | 96 | 1003.1 |
| 20260506230009 | 14 | 259 | 0.0 | 4.8 | 0.00 | 0.33 | 0.33 | 96 | 1003.0 |
| 20260506224509 | 14 | 226 | 0.0 | 6.4 | 0.00 | 0.33 | 0.33 | 96 | 1003.0 |
| 20260506223007 | 14 | 214 | 1.6 | 6.4 | 0.00 | 0.33 | 0.33 | 96 | 1003.1 |
| 20260506221504 | 14 | 288 | 1.6 | 4.8 | 0.00 | 0.33 | 0.33 | 96 | 1003.2 |
| 20260506220010 | 14 | 153 | 1.6 | 9.7 | 0.00 | 0.33 | 0.33 | 96 | 1003.4 |
| 20260506214504 | 15 | 188 | 1.6 | 6.4 | 0.03 | 0.33 | 0.33 | 96 | 1003.3 |
| 20260506213002 | 15 | 237 | 1.6 | 6.4 | 0.03 | 0.33 | 0.33 | 96 | 1003.5 |
| 20260506211610 | 15 | 252 | 1.6 | 8.0 | 0.03 | 0.33 | 0.33 | 96 | 1003.5 |
| 20260506210100 | 15 | 243 | 1.6 | 8.0 | 0.05 | 0.33 | 0.33 | 96 | 1003.5 |
| 20260506204600 | 15 | 168 | 0.0 | 6.4 | 0.08 | 0.30 | 0.30 | 96 | 1003.5 |
| 20260506203057 | 15 | 238 | 0.0 | 4.8 | 0.10 | 0.30 | 0.30 | 96 | 1003.7 |
| 20260506201556 | 15 | 245 | 0.0 | 4.8 | 0.10 | 0.30 | 0.30 | 96 | 1003.9 |
| 20260506200055 | 15 | 242 | 1.6 | 8.0 | 0.08 | 0.28 | 0.28 | 96 | 1003.9 |
| 20260506194555 | 15 | 182 | 0.0 | 3.2 | 0.05 | 0.23 | 0.23 | 96 | 1004.2 |
| 20260506193054 | 15 | 237 | 0.0 | 1.6 | 0.03 | 0.20 | 0.20 | 96 | 1004.1 |
| 20260506191553 | 15 | 214 | 0.0 | 1.6 | 0.08 | 0.20 | 0.20 | 95 | 1003.9 |
| 20260506190052 | 15 | 160 | 0.0 | 1.6 | 0.10 | 0.20 | 0.20 | 95 | 1004.2 |
| 20260506184547 | 15 | 225 | 0.0 | 1.6 | 0.15 | 0.18 | 0.18 | 94 | 1004.6 |
| 20260506183045 | 16 | 186 | 0.0 | 1.6 | 0.15 | 0.15 | 0.15 | 91 | 1005.0 |
| 20260506181544 | 16 | 162 | 0.0 | 3.2 | 0.13 | 0.13 | 0.13 | 89 | 1005.0 |
| 20260506180044 | 16 | 245 | 0.0 | 8.0 | 0.10 | 0.10 | 0.10 | 86 | 1005.2 |
| 20260506174546 | 17 | 260 | 0.0 | 3.2 | 0.03 | 0.03 | 0.03 | 81 | 1005.4 |
| 20260506173046 | 18 | 239 | 0.0 | 9.7 | 0.00 | 0.00 | 0.00 | 75 | 1005.1 |
| 20260506171549 | 19 | 225 | 0.0 | 6.4 | 0.00 | 0.00 | 0.00 | 71 | 1004.9 |
| 20260506170040 | 19 | 261 | 1.6 | 4.8 | 0.00 | 0.00 | 0.00 | 69 | 1004.9 |
| 20260506164551 | 19 | 188 | 1.6 | 4.8 | 0.00 | 0.00 | 0.00 | 68 | 1005.0 |
| 20260506163040 | 20 | 129 | 1.6 | 8.0 | 0.00 | 0.00 | 0.00 | 68 | 1005.1 |
| 20260506161534 | 19 | 204 | 1.6 | 6.4 | 0.00 | 0.00 | 0.00 | 70 | 1005.4 |
| 20260506160030 | 19 | 233 | 1.6 | 8.0 | 0.00 | 0.00 | 0.00 | 71 | 1005.8 |
| 20260506154528 | 18 | 243 | 1.6 | 8.0 | 0.00 | 0.00 | 0.00 | 72 | 1006.1 |
| 20260506153027 | 18 | 166 | 1.6 | 4.8 | 0.00 | 0.00 | 0.00 | 72 | 1006.2 |
| 20260506151525 | 18 | 146 | 1.6 | 6.4 | 0.00 | 0.00 | 0.00 | 73 | 1006.5 |
| 20260506150024 | 18 | 252 | 1.6 | 4.8 | 0.00 | 0.00 | 0.00 | 74 | 1006.4 |
| 20260506144530 | 18 | 265 | 1.6 | 6.4 | 0.00 | 0.00 | 0.00 | 73 | 1006.6 |
| 20260506143032 | 18 | 148 | 3.2 | 6.4 | 0.00 | 0.00 | 0.00 | 74 | 1006.3 |
| 20260506141518 | 17 | 158 | 1.6 | 6.4 | 0.00 | 0.00 | 0.00 | 77 | 1006.4 |
| 20260506140015 | 17 | 186 | 0.0 | 4.8 | 0.00 | 0.00 | 0.00 | 79 | 1006.3 |
| 20260506134513 | 16 | 238 | 0.0 | 6.4 | 0.00 | 0.00 | 0.00 | 80 | 1006.4 |
| 20260506133014 | 16 | 182 | 0.0 | 4.8 | 0.00 | 0.00 | 0.00 | 80 | 1006.6 |
| 20260506131516 | 16 | 240 | 0.0 | 4.8 | 0.00 | 0.00 | 0.00 | 80 | 1006.8 |
| 20260506130015 | 16 | 197 | 0.0 | 4.8 | 0.00 | 0.00 | 0.00 | 80 | 1006.7 |
| 20260506124508 | 16 | 245 | 0.0 | 4.8 | 0.00 | 0.00 | 0.00 | 81 | 1006.8 |
| 20260506123009 | 15 | 255 | 0.0 | 4.8 | 0.00 | 0.00 | 0.00 | 81 | 1006.8 |
| 20260506121508 | 15 | 154 | 0.0 | 4.8 | 0.00 | 0.00 | 0.00 | 81 | 1006.8 |
| 20260506120007 | 15 | 184 | 1.6 | 4.8 | 0.00 | 0.00 | 0.00 | 82 | 1006.9 |
| 20260506114505 | 15 | 190 | 1.6 | 4.8 | 0.00 | 0.00 | 0.00 | 83 | 1007.0 |
| 20260506113008 | 15 | 189 | 0.0 | 3.2 | 0.00 | 0.00 | 0.00 | 83 | 1007.2 |
| 20260506111504 | 14 | 219 | 0.0 | 3.2 | 0.00 | 0.00 | 0.00 | 84 | 1007.2 |
| 20260506110004 | 14 | 205 | 0.0 | 0.0 | 0.00 | 0.00 | 0.00 | 85 | 1007.3 |
| 20260506104502 | 13 | 229 | 0.0 | 0.0 | 0.00 | 0.00 | 0.00 | 85 | 1007.5 |
| 20260506103003 | 13 | 229 | 0.0 | 0.0 | 0.00 | 0.00 | 0.00 | 84 | 1007.4 |
| 20260506101559 | 13 | 229 | 0.0 | 1.6 | 0.00 | 0.00 | 0.00 | 84 | 1007.2 |
| 20260506100059 | 13 | 228 | 0.0 | 1.6 | 0.00 | 0.00 | 0.00 | 83 | 1007.1 |
| 20260506094558 | 13 | 216 | 0.0 | 1.6 | 0.00 | 0.00 | 0.00 | 82 | 1007.3 |
| 20260506093057 | 13 | 225 | 0.0 | 1.6 | 0.00 | 0.00 | 0.00 | 81 | 1007.2 |
| 20260506091556 | 14 | 228 | 0.0 | 3.2 | 0.00 | 0.00 | 0.00 | 80 | 1007.1 |
| 20260506090054 | 14 | 243 | 0.0 | 3.2 | 0.00 | 0.00 | 0.00 | 79 | 1007.2 |
| 20260506084554 | 14 | 233 | 0.0 | 1.6 | 0.00 | 0.00 | 0.00 | 79 | 1007.2 |
| 20260506083054 | 13 | 231 | 0.0 | 0.0 | 0.00 | 0.00 | 0.00 | 79 | 1007.3 |
| 20260506081553 | 13 | 229 | 0.0 | 0.0 | 0.00 | 0.00 | 0.00 | 79 | 1007.2 |
| 20260506073053 | 14 | 204 | 0.0 | 0.0 | 0.00 | 0.00 | 0.00 | 77 | 1007.1 |
| 20260506071550 | 15 | 204 | 0.0 | 0.0 | 0.00 | 0.00 | 0.00 | 74 | 1007.1 |
| 20260506061537 | 15 | 252 | 0.0 | 3.2 | 0.00 | 0.00 | 0.00 | 71 | 1006.6 |